Location: Atherton
(17.2661°S, 145.4859°E)
Time: 23:52:39
(UTC+10:00)

Vanguard 1 - Pass Details

Date: 24 June 2025
Orbit: 649 x 3822 km, 34.2° (Epoch: 17 July)

Event Time Altitude Azimuth Distance (km) Brightness Sun altitude
Rises 20:40:52 0° 275° (W) 6,999 15.3 -38.4°
Reaches altitude 10° 20:46:46 10° 267° (W) 5,472 14.5 -39.8°
Enters shadow 20:59:34 37° 207° (SSW) 2,531 12.0 -42.7°
Maximum altitude 20:59:46 37° 205° (SSW) 2,511 - -42.7°
Drops below altitude 10° 21:07:16 10° 138° (SE) 3,174 - -44.5°
Sets 21:09:45 0° 128° (SE) 3,850 - -45.0°
